Vorticity
nan nan nan nan nan nan nan nan nan nan nan nan nan nan nan nan nan nan nan nan nan nan nan nan nan nan nan
nan 9 8 8 9 8 8 8 7 6 8 10 10 11 12 11 10 10 10 9 9 9 10 9 10 9 nan
nan 8 9 9 9 10 8 9 8 9 11 11 11 11 9 8 8 10 10 9 10 11 10 10 10 10 nan
nan 8 8 9 8 7 9 9 9 12 13 15 13 11 11 10 11 11 11 12 12 11 11 10 10 10 nan
nan 8 7 7 7 9 10 9 12 13 14 11 12 12 13 14 11 9 10 10 10 11 10 10 10 11 nan
nan 7 7 9 9 8 8 8 11 12 7 6 9 10 11 12 7 8 8 8 9 11 11 11 12 12 nan
nan 7 9 9 9 10 9 8 8 6 7 11 12 11 11 9 7 7 8 11 11 12 12 12 11 11 nan
nan 8 9 8 9 10 8 10 12 11 13 11 10 11 10 10 13 13 13 12 10 9 9 10 10 11 nan
nan 10 9 10 11 14 13 11 12 13 16 12 8 10 13 14 18 17 15 9 8 9 9 10 11 18 nan
nan 11 13 14 15 13 11 10 9 12 10 8 7 11 14 12 10 14 15 13 14 16 13 12 14 17 nan
nan 12 13 12 13 11 11 10 9 8 2 7 10 10 9 6 8 11 11 15 17 15 16 15 14 8 nan
nan 10 10 10 10 10 11 11 11 7 7 9 9 9 8 8 8 8 10 12 12 12 15 16 16 16 nan
nan 10 10 9 10 12 13 14 13 13 14 11 8 8 9 9 8 6 9 12 13 12 11 12 15 16 nan
nan 10 11 11 11 11 10 10 13 16 17 15 11 9 8 8 9 9 11 8 9 11 10 10 12 12 nan
nan 11 11 10 10 10 10 10 10 8 10 14 16 14 11 9 9 11 10 10 9 9 10 12 11 12 nan
nan 11 10 9 10 11 11 9 9 10 11 9 10 13 16 22 11 2 11 9 9 11 12 11 10 12 nan
nan nan nan nan nan nan nan nan nan nan nan nan nan nan nan nan nan nan nan nan nan nan nan nan nan nan nan
CAPE
0 0 0 0 0 0 0 0 0 0 0 2 7 11 15 18 20 20 25 31 37 36 57 60 78 89 74
0 0 0 0 0 0 0 0 0 0 0 4 6 6 8 8 10 19 26 23 31 34 33 38 42 60 46
0 0 0 0 0 0 0 0 0 0 0 0 0 2 4 6 13 14 10 13 16 19 23 26 32 35 45
0 0 0 0 0 0 0 0 0 0 0 0 0 0 0 1 1 2 2 4 7 12 19 23 25 33 37
0 0 0 1 2 1 1 1 1 1 0 0 0 0 0 0 0 0 0 0 6 16 22 30 35 48 63
0 1 2 2 1 1 3 8 5 0 0 1 0 0 0 0 0 0 1 3 7 13 20 25 27 25 38
4 2 3 2 4 0 7 11 5 1 2 5 0 0 0 0 0 0 0 3 4 7 13 22 29 26 36
0 4 3 0 4 5 12 10 4 0 0 3 0 0 0 0 0 0 0 0 2 6 12 19 21 28 32
0 0 5 3 4 2 5 5 3 0 0 0 0 0 0 0 0 0 0 1 1 2 6 9 16 22 18
0 0 0 0 0 0 1 5 6 3 0 0 0 0 2 0 0 0 0 0 0 1 5 7 10 15 14
0 0 0 0 0 0 0 5 5 4 0 5 6 5 6 6 0 0 0 0 0 0 0 3 4 13 22
0 0 0 0 0 0 0 0 2 7 3 6 7 3 8 9 6 0 0 0 9 6 10 3 3 6 14
0 0 0 0 0 0 1 1 2 4 6 2 5 6 8 10 9 8 10 0 4 8 9 7 9 12 16
0 0 0 0 0 0 1 0 2 0 0 0 1 5 7 11 12 9 10 11 3 6 14 10 17 17 13
0 0 0 0 0 0 1 1 3 3 1 0 1 4 10 8 8 8 4 7 7 13 16 12 10 15 16
0 1 1 0 0 1 1 1 2 3 5 4 7 10 4 1 1 4 9 15 11 13 14 9 13 12 15
1 1 1 1 2 0 0 1 3 7 9 8 6 10 7 4 0 0 6 9 17 14 11 13 14 8 13